Погода в Гольфито

Коста-Рика     8°37′58″N   83°09′40″W
темп.,
°C
ветер,
м/с
пор.,
м/с
влажн.,
%
обл.,
%
осадки,
мм/ч
давл.,
гПа
погр.,
м
27 октября, ср
ср2700:00+22ссв119760 0.0 101117
03:00+22ссз1197100 0.2 101036
06:00+22ссв119585 0.3 101238
09:00+27ю117898 0.3 1013664
12:00+29ююз227169 1.3 10111068
15:00+26ююз1282100 1.6 1010575
18:00+23св0195100 3.8 101121
21:00+23св119693 0.3 101317
28 октября, чт
чт2800:00+23ссв119772 0.8 101217
03:00+22с119772 0.1 101117
06:00+22ссв119581 0.1 101329
09:00+27юз117786 0.0 1014745
12:00+28юз2275100 1.4 1011905
15:00+25з1289100 7.1 1010309
18:00+23ссз1196100 14.3 101219
21:00+22ссв129799 3.0 101455
29 октября, пт
пт2900:00+22ссз1198100 8.4 101264
03:00+22с119793 0.2 101149
06:00+22с119578 0.3 101329
09:00+26зюз128759 2.9 1014343
12:00+26з1286100 8.2 1012551
15:00+23з129599 6.8 1010113
18:00+22сз1398100 11.8 1012128
21:00+22ссз139890 1.4 101397
30 октября, сб
сб3000:00+22ссв1198100 4.1 101229
03:00+22сз129767 0.4 101066
06:00+22ссз139726 0.6 1012120
09:00+26зсз238360 0.5 1013690
12:00+25зюз2386100 3.2 1011755
15:00+24з1393100 2.4 1010382
18:00+22ссз1197100 5.6 101251
21:00+22ссз1197100 0.8 101435
31 октября, вс
вс3100:00+21с1197100 1.1 101327
03:00+21с1197100 0.0 101118
06:00+21ссв119593 0.1 101326
09:00+25ююв0085100 0.3 1014414
12:00+25ю1180100 0.8 1012579
15:00+25ююз118592 0.6 1010427
18:00+22ссв009746 2.5 101314
21:00+22св1197100 0.2 101417